Regional Weather Roundup
Issued by NWS Grand Forks, ND

Home | Current Version | Previous Version | Graphics & Text | Print | Product List | Glossary On
Versions: 1 2 3 4 5 6 7 8 9 10 11 12 13 14 15 16 17 18 19 20 21 22 23 24 25 26 27 28 29 30 31 32 33 34 35 36 37 38 39 40 41 42 43 44 45 46 47 48 49 50
000
ASUS43 KFGF 230410
RWRFGF
PRAIRIE TO PINES  WEATHER ROUNDUP
NATIONAL WEATHER SERVICE EASTERN NORTH DAKOTA/GRAND FORKS ND
1100 PM CDT TUE JUL 22 2014

 **SATELLITE DATA USED TO AUGMENT SKY COVER AT AUTOMATED STATIONS**
 *****  WEATHER ACROSS EASTERN NORTH DAKOTA  *****

CITY           SKY/WX    TMP DP  RH WIND       PRES   REMARKS
GRAND FORKS    CLEAR     62  59  90 CALM      30.22S
GRAND FRKS AFB CLEAR     64  61  89 NW1       30.24S
GRAND FRKS NWS   N/A     64 N/A N/A MISG        N/A
DEVILS LAKE    CLEAR     66  59  77 E6        30.23S
FARGO          CLEAR     64  58  80 CALM      30.23S
WAHPETON ARPT  CLEAR     64  54  68 N6        30.24R
$$

 ***** WEATHER ACROSS CENTRAL AND WESTERN NORTH DAKOTA  *****

CITY           SKY/WX    TMP DP  RH WIND       PRES   REMARKS
BISMARCK       CLOUDY    71  61  70 E10       30.21F
MINOT          MOCLDY    68  62  81 N3        30.24R
JAMESTOWN      MOCLDY    66  60  81 CALM      30.25R
MINOT AFB      MOCLDY    70  62  76 E6        30.23R
GARRISON         N/A     70  64  81 E7        30.23R
WILLISTON      CLOUDY    74  63  68 E9        30.22R
DICKINSON      CLOUDY    63  59  87 S7        30.24R
HETTINGER      CLOUDY    66  60  81 SE8       30.24F
$$

 *****  OTHER AIRPORT OBSERVATIONS IN OUR AREA  *****

CITY           SKY/WX    TMP DP  RH WIND       PRES   REMARKS
WALHALLA         N/A     61  61 100 W5          N/A
GRAFTON AIRPOR FAIR      63  59  88 W3        30.24R
VALLEY CITY AR FAIR      66  64  94 E3        30.25S
CANDO          FAIR      63  59  88 E7        30.26R
CAVALIER APRT  FAIR      64  57  77 NW5       30.24S
GWINNER        CLEAR     66  63  88 CALM      30.26S
SHEYENNE NWR     N/A     65  58  78 NE5       29.95
ROLLA          MOCLDY    59  59 100 CALM      30.28R
 ***** THE ABOVE OBSERVATIONS ARE NON NWS ARE NOT QUALITY
       CONTROLLED AND MAY MIS-REPORT RAIN FOR SNOW...
$$

  *****  WEATHER ACROSS NORTHERN MINNESOTA  *****

CITY           SKY/WX    TMP DP  RH WIND       PRES   REMARKS
FLAG ISLAND    CLEAR     66  55  68 NW12      30.19R HAZE
WARROAD        NOT AVBL
ROSEAU         CLEAR     61  55  82 NW5       30.23R
HALLOCK        CLEAR     64  59  82 N5        30.22S
THF RVR FALLS  CLEAR     64  57  77 NW3       30.23S
BAUDETTE       CLEAR     61  55  81 NW7       30.21R
WASKISH        PTCLDY    66  57  72 NW6       30.21R
CROOKSTON      CLEAR     64  57  77 CALM      30.24S
$$
  *****  WEATHER ACROSS CENTRAL AND WEST MINNESOTA  *****

CITY           SKY/WX    TMP DP  RH WIND       PRES   REMARKS
FOSSTON        CLEAR     57  54  88 CALM      30.24R
BEMIDJI        CLEAR     60  53  78 W5        30.22R
PARK RAPIDS    CLEAR     60  54  80 NW7       30.23R
ELBOW LAKE     FAIR      63  58  83 N5        30.24R
WADENA         CLEAR     61  54  77 NW6       30.23R
DETROIT LAKES  CLEAR     63  57  82 W5        30.26R
MOORHEAD       CLEAR     64  64 100 CALM      30.24S
FERGUS FALLS   CLEAR     63  55  77 N6        30.24S
MORRIS MN      CLEAR     63  57  82 N7        30.23R
STAPLES        CLEAR     61  55  82 CALM      30.22R
$$
  *****  WEATHER ELSEWHERE ACROSS MINNESOTA  *****

CITY           SKY/WX    TMP DP  RH WIND       PRES   REMARKS
DULUTH         CLEAR     63  54  72 NW5       30.16S
INTRNTL FALLS  CLEAR     64  55  72 N5        30.17R
ELY            PTCLDY    57  54  88 CALM      30.16R
CLOQUET        CLEAR     61  54  77 CALM      30.17R
WHEATON        CLEAR     63  57  82 CALM      30.25S
BRAINERD       CLEAR     59  54  83 CALM      30.21R
HIBBING        CLEAR     53  51  93 CALM      30.17S
ALEXANDRIA     CLEAR     65  57  75 N6        30.24R
SAINT CLOUD    CLEAR     65  55  70 N3        30.18R
MINNEAPOLIS    PTCLDY    73  55  53 N10       30.14R
$$

  *****  WEATHER ACROSS SOUTH DAKOTA  *****

CITY           SKY/WX    TMP DP  RH WIND       PRES   REMARKS
SIOUX FALLS    PTCLDY    66  59  78 N6        30.23R
BROOKINGS      NOT AVBL
WATERTOWN      CLEAR     61  57  87 NE6       30.25S
HURON          PTCLDY    68  58  70 N3        30.25R
SISSETON         N/A     63  60  90 NW5       30.24R
ABERDEEN       MOCLDY    63  59  87 CALM      30.26R
MITCHELL       MOCLDY    68  61  78 N3        30.23R
PIERRE         CLOUDY    73  60  63 NE12      30.27R
MOBRIDGE       LGT RAIN  71  63  75 SE7       30.21F
RAPID CITY     TSTM      68  63  84 VRB5      30.30R
$$

  *****  SOME WEATHER IN NEARBY STATES *****

CITY           SKY/WX    TMP DP  RH WIND       PRES   REMARKS
GLASGOW MT     MOCLDY    71  52  50 E9        30.23R
GREAT FALLS MT CLOUDY    72  55  55 E12       30.17R
CHEYENNE WY    CLEAR     75  54  47 S12       30.37R
SCOTTSBLUFF NE MOCLDY    77  60  55 E13       30.23R
OMAHA NE       PTCLDY    74  67  78 N7        30.14R
DES MOINES IA  PTCLDY    78  66  66 N9        30.10R
DAVENPORT IA   PTCLDY    75  70  84 NW7       30.02R
CHICAGO IL     MOCLDY    82  72  71 SW13      29.93F
EAU CLAIRE WI  CLEAR     69  61  75 N5        30.10R
LA CROSSE WI   PTCLDY    72  63  73 N8        30.06S
$$

  *****  SOME NATIONAL WEATHER *****

CITY           SKY/WX    TMP DP  RH WIND       PRES   REMARKS
LA GUARDIA NY  PTCLDY    77  63  61 SW13      30.04F
RALEIGH NC     PTCLDY    74  71  91 CALM      30.12R
ATLANTA GA     MOCLDY    77  71  82 CALM      30.12S
NEW ORLEANS LA MOCLDY    79  71  76 E6        30.03S
OKLAHOMA CITY  PTCLDY    81  74  79 S5        30.09S
ALBUQUERQUE NM CLOUDY    80  55  42 SE10      30.34F
SALT LAKE CITY PTCLDY    80  50  34 W7        30.07R
LOS ANGELES CA CLEAR     71  60  68 W13       29.98S
BOISE ID       MOCLDY    85  43  22 NW10      29.97F
SEATTLE WA     PTCLDY    65  56  72 CALM      30.03S
$$

*** WEATHER ACROSS MANITOBA...SASKATCHEWAN AND ONTARIO ***
                ***ONTARIO***

CITY           SKY/WX    TMP DP  RH WIND       PRES   REMARKS
GERALDTON      PTCLDY    54  52  94 NW3       30.10S
THUNDER BAY    MOCLDY    63  57  82 N5        30.12R
SIOUX LOOKOUT  PTCLDY    55  54  94 N3        30.18S
TORONTO        TSTM      79  66  65 SE6       29.93R
BIG TROUT LK   MOCLDY    57  46  67 N5        30.14S
PICKLE LAKE    NOT AVBL
DRYDEN         CLEAR     57  52  82 N5        30.19S
KENORA         PTCLDY    61  54  77 N5        30.21S
$$
                *** MANITOBA***

CITY           SKY/WX    TMP DP  RH WIND       PRES   REMARKS
BRANDON        PTCLDY    59  55  88 NE9       30.28R
DAUPHIN        CLEAR     57  52  82 CALM      30.28R
ISLAND LAKE    MOCLDY    61  50  67 W3        30.22R
PILOT MOUND      N/A     61  55  82 NE6         N/A
THE PAS        PTCLDY    59  52  77 CALM      30.24R
THOMPSON       PTCLDY    50  48  93 W3        30.21R
WINNIPEG       CLEAR     59  55  88 N5        30.26R
LYNN LAKE      CLEAR     57  48  72 W5        30.22R
CHURCHILL      CLOUDY    57  50  77 S9        30.05F
GILLAM         PTCLDY    59  48  67 SW7       30.12F
$$
                ***SASKATCHEWAN***

CITY           SKY/WX    TMP DP  RH WIND       PRES   REMARKS
ESTEVAN        MOCLDY    66  61  82 E6        30.26R
KINDERSLEY     MOCLDY    66  59  77 SE13      30.19S
LLOYDMINSTER   CLEAR     63  57  82 SE8       30.19R
PRINCE ALBERT  PTCLDY    61  57  88 CALM      30.24R
REGINA         MOCLDY    66  54  63 E8        30.26R
YORKTON        CLEAR     61  52  72 E5        30.27R
N. BATTLEFORD  CLEAR     63  57  82 E9        30.23R
LA RONGE       MOCLDY    61  50  67 CALM      30.21S
SASKATOON      MOCLDY    68  57  68 SE8       30.25R
SWIFT CURRENT  MOCLDY    64  59  82 SE10      30.23R
$$
NOTE: THESE ARE AUTOMATED STATIONS WITH LIMITED QUALITY CONTROL
      "FAIR" INDICATES FEW OR NO CLOUDS BELOW 12,000 FEET WITH NO
      SIGNIFICANT WEATHER AND/OR OBSTRUCTIONS TO VISIBILITY.
      SKY/WX - SKY CONDITION AND SIGNIFICANT WEATHER.
      TMP - AIR TEMPERATURE.    DP   - DEWPOINT TEMPERATURE.
      RH  - RELATIVE HUMIDITY.  PRES - PRESSURE.
      HX  - HEAT INDEX.         WCI  - WIND CHILL INDEX.
$


USA.gov is the U.S. government's official web portal to all federal, state and local government web resources and services.